Time,TemperatureF,DewpointF,PressureIn,WindDirection,WindDirectionDegrees,WindSpeedMPH,WindSpeedGustMPH,Humidity,HourlyPrecipIn,Conditions,Clouds,dailyrainin,SolarRadiationWatts/m^2,SoftwareType,DateUTC
2015-01-30 00:01:00,33.6,30.1,29.95,East,99,6.0,7.0,87,0.00,,OVC045,0.00,0.00,VWS V14.01,2015-01-30 05:01:00,
2015-01-30 00:06:00,35.0,31.0,29.95,North,357,5.0,11.0,85,0.00,,OVC044,0.00,0.00,VWS V14.01,2015-01-30 05:06:00,
2015-01-30 00:11:00,34.8,29.6,29.95,NNW,340,0.0,0.0,81,0.00,,OVC044,0.00,0.00,VWS V14.01,2015-01-30 05:11:00,
2015-01-30 00:16:00,33.9,28.7,29.95,WNW,292,1.0,12.0,81,0.00,,OVC044,0.00,0.00,VWS V14.01,2015-01-30 05:16:00,
2015-01-30 00:21:00,33.4,28.8,29.95,WNW,292,1.0,1.0,83,0.00,,OVC044,0.00,0.00,VWS V14.01,2015-01-30 05:21:00,
2015-01-30 00:26:00,33.4,29.1,29.95,NNE,18,5.0,13.0,84,0.00,,OVC044,0.00,0.00,VWS V14.01,2015-01-30 05:26:00,
2015-01-30 00:31:00,34.0,29.4,29.96,North,354,4.0,5.0,83,0.00,,OVC044,0.00,0.00,VWS V14.01,2015-01-30 05:31:00,
2015-01-30 00:36:00,35.3,29.5,29.96,NW,313,3.0,12.0,79,0.00,,OVC044,0.00,0.00,VWS V14.01,2015-01-30 05:36:00,
2015-01-30 00:41:00,36.2,29.4,29.96,NW,313,3.0,5.0,76,0.00,,OVC044,0.00,0.00,VWS V14.01,2015-01-30 05:41:00,
2015-01-30 00:46:00,36.9,29.1,29.96,North,357,7.0,11.0,73,0.00,,OVC044,0.00,0.00,VWS V14.01,2015-01-30 05:46:00,
2015-01-30 00:52:00,37.3,28.1,29.96,NNE,16,5.0,14.0,69,0.00,,OVC044,0.00,0.00,VWS V14.01,2015-01-30 05:52:00,
2015-01-30 00:57:00,37.9,27.9,29.96,WNW,296,6.0,18.0,67,0.00,,OVC044,0.00,0.00,VWS V14.01,2015-01-30 05:57:00,
2015-01-30 01:02:00,38.1,28.1,29.97,NW,316,5.0,9.0,67,0.00,,OVC042,0.00,0.00,VWS V14.01,2015-01-30 06:02:00,
2015-01-30 01:07:00,37.9,27.9,29.97,West,272,12.0,21.0,67,0.00,,OVC042,0.00,0.00,VWS V14.01,2015-01-30 06:07:00,
2015-01-30 01:12:00,37.9,27.9,29.97,NNE,25,10.0,10.0,67,0.00,,OVC042,0.00,0.00,VWS V14.01,2015-01-30 06:12:00,
2015-01-30 01:17:00,37.9,27.9,29.97,North,0,4.0,13.0,67,0.00,,OVC042,0.00,0.00,VWS V14.01,2015-01-30 06:17:00,
2015-01-30 01:22:00,37.9,27.9,29.97,NNW,343,5.0,7.0,67,0.00,,OVC042,0.00,0.00,VWS V14.01,2015-01-30 06:22:00,
2015-01-30 01:27:00,37.8,28.2,29.97,NW,326,3.0,8.0,68,0.00,,OVC042,0.00,0.00,VWS V14.01,2015-01-30 06:27:00,
2015-01-30 01:32:00,37.6,28.0,29.97,NW,323,8.0,9.0,68,0.00,,OVC042,0.00,0.00,VWS V14.01,2015-01-30 06:32:00,
2015-01-30 01:37:00,37.8,27.8,29.97,North,0,5.0,9.0,67,0.00,,OVC042,0.00,0.00,VWS V14.01,2015-01-30 06:37:00,
2015-01-30 01:42:00,37.8,27.5,29.97,North,359,2.0,8.0,66,0.00,,OVC042,0.00,0.00,VWS V14.01,2015-01-30 06:42:00,
2015-01-30 01:47:00,37.6,27.6,29.97,North,8,5.0,8.0,67,0.00,,OVC042,0.00,0.00,VWS V14.01,2015-01-30 06:47:00,
2015-01-30 01:52:00,37.5,29.0,29.97,East,93,2.0,3.0,71,0.00,,OVC042,0.00,0.00,VWS V14.01,2015-01-30 06:52:00,
2015-01-30 01:57:00,37.0,29.5,29.97,East,100,3.0,3.0,74,0.00,,OVC042,0.00,0.00,VWS V14.01,2015-01-30 06:57:00,
2015-01-30 02:02:00,36.6,29.8,29.97,ESE,116,0.0,0.0,76,0.00,,OVC040,0.00,0.00,VWS V14.01,2015-01-30 07:02:00,
2015-01-30 02:07:00,36.3,29.1,29.97,ENE,59,1.0,8.0,75,0.00,,OVC040,0.00,0.00,VWS V14.01,2015-01-30 07:07:00,
2015-01-30 02:12:00,36.3,29.5,29.97,North,0,0.0,5.0,76,0.00,,OVC040,0.00,0.00,VWS V14.01,2015-01-30 07:12:00,
2015-01-30 02:17:00,36.0,29.5,29.97,North,0,0.0,5.0,77,0.00,,OVC040,0.00,0.00,VWS V14.01,2015-01-30 07:17:00,
2015-01-30 02:23:00,35.9,29.7,29.97,North,0,0.0,0.0,78,0.00,,OVC040,0.00,0.00,VWS V14.01,2015-01-30 07:23:00,
2015-01-30 02:28:00,35.6,29.4,29.97,North,0,0.0,0.0,78,0.00,,OVC040,0.00,0.00,VWS V14.01,2015-01-30 07:28:00,
2015-01-30 02:33:00,35.5,29.3,29.97,NNW,329,1.0,8.0,78,0.00,,OVC040,0.00,0.00,VWS V14.01,2015-01-30 07:33:00,
2015-01-30 02:38:00,35.3,28.8,29.97,North,359,2.0,8.0,77,0.00,,OVC040,0.00,0.00,VWS V14.01,2015-01-30 07:38:00,
2015-01-30 02:43:00,35.3,28.5,29.97,North,353,4.0,7.0,76,0.00,,OVC040,0.00,0.00,VWS V14.01,2015-01-30 07:43:00,
2015-01-30 02:48:00,35.6,27.8,29.98,NNW,333,3.0,8.0,73,0.00,,OVC040,0.00,0.00,VWS V14.01,2015-01-30 07:48:00,
2015-01-30 02:53:00,36.0,27.2,29.98,North,1,6.0,16.0,70,0.00,,OVC040,0.00,0.00,VWS V14.01,2015-01-30 07:53:00,
2015-01-30 02:58:00,36.5,27.0,29.98,NNW,328,9.0,16.0,68,0.00,,OVC040,0.00,0.00,VWS V14.01,2015-01-30 07:58:00,
2015-01-30 03:03:00,36.6,26.7,29.98,NNW,336,5.0,13.0,67,0.00,,OVC070,0.00,0.00,VWS V14.01,2015-01-30 08:03:00,
2015-01-30 03:08:00,36.8,26.1,29.98,North,0,8.0,13.0,65,0.00,,OVC070,0.00,0.00,VWS V14.01,2015-01-30 08:08:00,
2015-01-30 03:13:00,36.9,26.6,29.98,North,349,2.0,6.0,66,0.00,,OVC070,0.00,0.00,VWS V14.01,2015-01-30 08:13:00,
2015-01-30 03:18:00,36.8,26.5,29.98,NNW,333,3.0,10.0,66,0.00,,OVC070,0.00,0.00,VWS V14.01,2015-01-30 08:18:00,
2015-01-30 03:23:00,36.8,26.5,29.98,NNW,340,7.0,16.0,66,0.00,,OVC070,0.00,0.00,VWS V14.01,2015-01-30 08:23:00,
2015-01-30 03:28:00,36.6,26.3,29.98,NNW,337,6.0,16.0,66,0.00,,OVC070,0.00,0.00,VWS V14.01,2015-01-30 08:28:00,
2015-01-30 03:33:00,36.5,26.6,29.98,NW,318,7.0,8.0,67,0.00,,OVC070,0.00,0.00,VWS V14.01,2015-01-30 08:33:00,
2015-01-30 03:38:00,36.3,26.8,29.98,NNW,340,7.0,12.0,68,0.00,,OVC070,0.00,0.00,VWS V14.01,2015-01-30 08:38:00,
2015-01-30 03:43:00,36.2,27.0,29.98,NW,325,2.0,5.0,69,0.00,,OVC070,0.00,0.00,VWS V14.01,2015-01-30 08:43:00,
2015-01-30 03:48:00,36.0,27.2,29.98,NNW,330,4.0,7.0,70,0.00,,OVC070,0.00,0.00,VWS V14.01,2015-01-30 08:48:00,
2015-01-30 03:54:00,36.0,26.8,29.98,NNW,337,10.0,12.0,69,0.00,,OVC070,0.00,0.00,VWS V14.01,2015-01-30 08:54:00,
2015-01-30 03:59:00,36.0,26.8,29.98,NNW,335,5.0,12.0,69,0.00,,OVC070,0.00,0.00,VWS V14.01,2015-01-30 08:59:00,
2015-01-30 04:04:00,36.0,26.5,29.98,NW,318,7.0,11.0,68,0.00,,OVC085,0.00,0.00,VWS V14.01,2015-01-30 09:04:00,
2015-01-30 04:09:00,36.0,26.8,29.98,North,0,8.0,12.0,69,0.00,,OVC085,0.00,0.00,VWS V14.01,2015-01-30 09:09:00,
2015-01-30 04:14:00,35.6,28.5,29.98,NNE,25,6.0,13.0,75,0.00,,OVC085,0.00,0.00,VWS V14.01,2015-01-30 09:14:00,
2015-01-30 04:19:00,34.6,29.4,30.00,NNE,18,6.0,13.0,81,0.00,,OVC085,0.00,0.00,VWS V14.01,2015-01-30 09:19:00,
2015-01-30 04:24:00,33.9,29.3,30.00,NNE,23,8.0,16.0,83,0.00,,OVC085,0.00,0.00,VWS V14.01,2015-01-30 09:24:00,
2015-01-30 04:29:00,33.4,27.9,30.00,North,0,10.0,16.0,80,0.00,,OVC085,0.00,0.00,VWS V14.01,2015-01-30 09:29:00,
2015-01-30 04:34:00,33.6,26.2,30.01,NNE,25,10.0,13.0,74,0.00,,OVC085,0.00,0.00,VWS V14.01,2015-01-30 09:34:00,
2015-01-30 04:39:00,33.9,25.5,30.01,NNE,18,13.0,19.0,71,0.00,,OVC085,0.00,0.00,VWS V14.01,2015-01-30 09:39:00,
2015-01-30 04:44:00,34.2,24.8,30.01,North,4,5.0,11.0,68,0.00,,OVC085,0.00,0.00,VWS V14.01,2015-01-30 09:44:00,
2015-01-30 04:49:00,34.2,25.1,30.02,NNE,24,6.0,11.0,69,0.00,,OVC085,0.00,0.00,VWS V14.01,2015-01-30 09:49:00,
2015-01-30 04:54:00,34.2,24.4,30.02,NNE,31,4.0,12.0,67,0.00,,OVC085,0.00,0.00,VWS V14.01,2015-01-30 09:54:00,
2015-01-30 04:59:00,34.2,24.4,30.02,NE,37,4.0,12.0,67,0.00,,OVC085,0.00,0.00,VWS V14.01,2015-01-30 09:59:00,
2015-01-30 05:04:00,34.2,24.4,30.02,NNE,24,4.0,6.0,67,0.00,,OVC038,0.00,0.00,VWS V14.01,2015-01-30 10:04:00,
2015-01-30 05:09:00,34.0,23.9,30.02,ENE,72,6.0,9.0,66,0.00,,OVC038,0.00,0.00,VWS V14.01,2015-01-30 10:09:00,
2015-01-30 05:14:00,34.0,23.5,30.02,ENE,62,6.0,13.0,65,0.00,,OVC038,0.00,0.00,VWS V14.01,2015-01-30 10:14:00,
2015-01-30 05:19:00,34.0,23.9,30.03,NE,37,3.0,13.0,66,0.00,,OVC038,0.00,0.00,VWS V14.01,2015-01-30 10:19:00,
2015-01-30 05:25:00,33.9,23.8,30.03,ENE,62,5.0,8.0,66,0.00,,OVC038,0.00,0.00,VWS V14.01,2015-01-30 10:25:00,
2015-01-30 05:30:00,33.9,23.4,30.03,North,1,6.0,10.0,65,0.00,,OVC038,0.00,0.00,VWS V14.01,2015-01-30 10:30:00,
2015-01-30 05:35:00,33.9,23.4,30.03,NNE,27,5.0,9.0,65,0.00,,OVC038,0.00,0.00,VWS V14.01,2015-01-30 10:35:00,
2015-01-30 05:40:00,33.9,23.8,30.03,North,1,1.0,9.0,66,0.00,,OVC038,0.00,0.00,VWS V14.01,2015-01-30 10:40:00,
2015-01-30 05:45:00,33.7,23.6,30.03,North,3,0.0,6.0,66,0.00,,OVC038,0.00,0.00,VWS V14.01,2015-01-30 10:45:00,
2015-01-30 05:50:00,33.6,23.5,30.03,North,0,2.0,6.0,66,0.00,,OVC038,0.00,0.00,VWS V14.01,2015-01-30 10:50:00,
2015-01-30 05:55:00,33.6,23.1,30.03,NE,37,3.0,7.0,65,0.00,,OVC038,0.00,0.00,VWS V14.01,2015-01-30 10:55:00,
2015-01-30 06:00:00,33.7,23.6,30.03,ESE,103,0.0,7.0,66,0.00,,OVC038,0.00,0.00,VWS V14.01,2015-01-30 11:00:00,
2015-01-30 06:05:00,33.6,23.1,30.03,NE,48,5.0,10.0,65,0.00,,OVC070,0.00,0.00,VWS V14.01,2015-01-30 11:05:00,
2015-01-30 06:10:00,33.7,23.2,30.03,NNE,30,2.0,10.0,65,0.00,,OVC070,0.00,0.00,VWS V14.01,2015-01-30 11:10:00,
2015-01-30 06:15:00,33.6,23.8,30.03,NNE,16,0.0,3.0,67,0.00,,OVC070,0.00,0.00,VWS V14.01,2015-01-30 11:15:00,
2015-01-30 06:20:00,33.4,23.6,30.03,NW,305,1.0,6.0,67,0.00,,OVC070,0.00,0.00,VWS V14.01,2015-01-30 11:20:00,
2015-01-30 06:25:00,33.4,23.6,30.03,ENE,76,1.0,3.0,67,0.00,,OVC070,0.00,0.00,VWS V14.01,2015-01-30 11:25:00,
2015-01-30 06:30:00,33.4,24.0,30.03,NE,48,8.0,8.0,68,0.00,,OVC070,0.00,0.00,VWS V14.01,2015-01-30 11:30:00,
2015-01-30 06:35:00,33.4,24.0,30.03,NE,35,2.0,6.0,68,0.00,,OVC070,0.00,0.00,VWS V14.01,2015-01-30 11:35:00,
2015-01-30 06:40:00,33.3,24.2,30.03,NE,51,3.0,6.0,69,0.00,,OVC070,0.00,0.00,VWS V14.01,2015-01-30 11:40:00,
2015-01-30 06:45:00,33.3,24.2,30.04,NE,56,2.0,7.0,69,0.00,,OVC070,0.00,0.00,VWS V14.01,2015-01-30 11:45:00,
2015-01-30 06:50:00,33.3,24.2,30.04,ENE,59,1.0,7.0,69,0.00,,OVC070,0.00,0.00,VWS V14.01,2015-01-30 11:50:00,
2015-01-30 06:56:00,33.1,24.4,30.04,North,0,5.0,7.0,70,0.00,,OVC070,0.00,0.00,VWS V14.01,2015-01-30 11:56:00,
2015-01-30 07:01:00,33.3,24.6,30.04,NE,54,2.0,7.0,70,0.00,,OVC070,0.00,0.00,VWS V14.01,2015-01-30 12:01:00,
2015-01-30 07:06:00,33.3,24.6,30.04,NNE,20,1.0,6.0,70,0.00,,OVC060,0.00,0.00,VWS V14.01,2015-01-30 12:06:00,
2015-01-30 07:11:00,33.1,24.7,30.04,NNE,27,1.0,6.0,71,0.00,,OVC060,0.00,0.00,VWS V14.01,2015-01-30 12:11:00,
2015-01-30 07:16:00,33.1,24.7,30.04,NNE,31,3.0,3.0,71,0.00,,OVC060,0.00,0.00,VWS V14.01,2015-01-30 12:16:00,
2015-01-30 07:21:00,33.1,24.4,30.04,ENE,75,2.0,7.0,70,0.00,,OVC060,0.00,0.00,VWS V14.01,2015-01-30 12:21:00,
2015-01-30 07:26:00,33.1,24.7,30.04,North,359,1.0,3.0,71,0.00,,OVC060,0.00,0.00,VWS V14.01,2015-01-30 12:26:00,
2015-01-30 07:31:00,33.0,24.6,30.05,NNW,332,1.0,1.0,71,0.00,,OVC060,0.00,0.00,VWS V14.01,2015-01-30 12:31:00,
2015-01-30 07:36:00,33.0,25.0,30.05,NNE,31,6.0,6.0,72,0.00,,OVC060,0.00,7.00,VWS V14.01,2015-01-30 12:36:00,
2015-01-30 07:41:00,33.0,24.6,30.05,NNW,337,4.0,5.0,71,0.00,,OVC060,0.00,12.00,VWS V14.01,2015-01-30 12:41:00,
2015-01-30 07:46:00,33.1,24.7,30.05,North,0,2.0,6.0,71,0.00,,OVC060,0.00,11.00,VWS V14.01,2015-01-30 12:46:00,
2015-01-30 07:51:00,33.1,25.4,30.05,North,0,7.0,13.0,73,0.00,,OVC060,0.00,9.00,VWS V14.01,2015-01-30 12:51:00,
2015-01-30 07:56:00,32.4,25.4,30.05,North,350,6.0,17.0,75,0.00,,OVC060,0.00,19.00,VWS V14.01,2015-01-30 12:56:00,
2015-01-30 08:01:00,31.8,24.1,30.08,North,0,7.0,10.0,73,0.00,,OVC070,0.00,28.00,VWS V14.01,2015-01-30 13:01:00,
2015-01-30 08:06:00,31.5,24.5,30.08,NE,38,10.0,16.0,75,0.00,,OVC070,0.00,37.00,VWS V14.01,2015-01-30 13:06:00,
2015-01-30 08:11:00,31.2,26.1,30.08,NNE,23,7.0,8.0,81,0.00,,OVC070,0.00,37.00,VWS V14.01,2015-01-30 13:11:00,
2015-01-30 08:16:00,30.8,24.1,30.09,NNE,27,6.0,11.0,76,0.00,,OVC070,0.00,35.00,VWS V14.01,2015-01-30 13:16:00,
2015-01-30 08:21:00,30.8,22.9,30.09,NE,44,6.0,7.0,72,0.00,,OVC070,0.00,48.00,VWS V14.01,2015-01-30 13:21:00,
2015-01-30 08:27:00,30.9,22.3,30.09,NE,40,5.0,11.0,70,0.00,,OVC070,0.00,67.00,VWS V14.01,2015-01-30 13:27:00,
2015-01-30 08:32:00,31.1,21.8,30.09,NE,35,5.0,11.0,68,0.00,,OVC070,0.00,102.00,VWS V14.01,2015-01-30 13:32:00,
2015-01-30 08:37:00,31.4,21.0,30.09,NNE,21,6.0,11.0,65,0.00,,OVC070,0.00,125.00,VWS V14.01,2015-01-30 13:37:00,
2015-01-30 08:42:00,31.7,20.2,30.09,NE,37,6.0,12.0,62,0.00,,OVC070,0.00,93.00,VWS V14.01,2015-01-30 13:42:00,
2015-01-30 08:47:00,31.8,19.9,30.10,NNE,16,6.0,12.0,61,0.00,,OVC070,0.00,95.00,VWS V14.01,2015-01-30 13:47:00,
2015-01-30 08:52:00,31.8,19.5,30.10,NNE,23,12.0,12.0,60,0.00,,OVC070,0.00,84.00,VWS V14.01,2015-01-30 13:52:00,
2015-01-30 08:57:00,31.8,19.9,30.10,NNE,27,8.0,12.0,61,0.00,,OVC070,0.00,90.00,VWS V14.01,2015-01-30 13:57:00,
2015-01-30 09:02:00,31.8,19.1,30.11,NNE,20,6.0,10.0,59,0.00,,BKN080,0.00,99.00,VWS V14.01,2015-01-30 14:02:00,
2015-01-30 09:07:00,31.8,19.9,30.11,NNE,21,5.0,10.0,61,0.00,,BKN080,0.00,102.00,VWS V14.01,2015-01-30 14:07:00,
2015-01-30 09:12:00,31.8,19.5,30.11,North,357,4.0,5.0,60,0.00,,BKN080,0.00,157.00,VWS V14.01,2015-01-30 14:12:00,
2015-01-30 09:17:00,31.8,19.5,30.11,North,8,9.0,13.0,60,0.00,,BKN080,0.00,144.00,VWS V14.01,2015-01-30 14:17:00,
2015-01-30 09:22:00,31.7,18.6,30.11,North,0,5.0,10.0,58,0.00,,BKN080,0.00,216.00,VWS V14.01,2015-01-30 14:22:00,
2015-01-30 09:27:00,31.8,19.5,30.11,North,0,6.0,16.0,60,0.00,,BKN080,0.00,194.00,VWS V14.01,2015-01-30 14:27:00,
2015-01-30 09:32:00,31.7,18.6,30.11,NNW,346,7.0,12.0,58,0.00,,BKN080,0.00,209.00,VWS V14.01,2015-01-30 14:32:00,
2015-01-30 09:37:00,31.8,18.7,30.11,ENE,62,2.0,12.0,58,0.00,,BKN080,0.00,109.00,VWS V14.01,2015-01-30 14:37:00,
2015-01-30 09:42:00,31.8,18.7,30.11,NNW,347,7.0,12.0,58,0.00,,BKN080,0.00,153.00,VWS V14.01,2015-01-30 14:42:00,
2015-01-30 09:47:00,31.9,19.2,30.11,North,0,3.0,12.0,59,0.00,,BKN080,0.00,111.00,VWS V14.01,2015-01-30 14:47:00,
2015-01-30 09:53:00,31.8,18.3,30.11,NE,42,7.0,12.0,57,0.00,,BKN080,0.00,139.00,VWS V14.01,2015-01-30 14:53:00,
2015-01-30 09:58:00,31.5,18.0,30.11,North,0,5.0,12.0,57,0.00,,BKN080,0.00,106.00,VWS V14.01,2015-01-30 14:58:00,
2015-01-30 10:03:00,31.5,18.4,30.13,NNE,30,6.0,6.0,58,0.00,,OVC080,0.00,97.00,VWS V14.01,2015-01-30 15:03:00,
2015-01-30 10:08:00,31.5,18.4,30.13,NE,54,3.0,7.0,58,0.00,,OVC080,0.00,93.00,VWS V14.01,2015-01-30 15:08:00,
2015-01-30 10:13:00,31.4,18.4,30.13,NNE,21,6.0,9.0,58,0.00,,OVC080,0.00,91.00,VWS V14.01,2015-01-30 15:13:00,
2015-01-30 10:18:00,31.2,18.5,30.13,NE,34,12.0,16.0,59,0.00,,OVC080,0.00,104.00,VWS V14.01,2015-01-30 15:18:00,
2015-01-30 10:23:00,30.9,17.5,30.13,ENE,75,10.0,13.0,57,0.00,,OVC080,0.00,132.00,VWS V14.01,2015-01-30 15:23:00,
2015-01-30 10:28:00,30.8,17.4,30.13,North,8,6.0,22.0,57,0.00,,OVC080,0.00,143.00,VWS V14.01,2015-01-30 15:28:00,
2015-01-30 10:33:00,30.8,17.0,30.14,NNE,13,7.0,13.0,56,0.00,,OVC080,0.00,171.00,VWS V14.01,2015-01-30 15:33:00,
2015-01-30 10:38:00,30.8,17.0,30.14,NNE,31,13.0,16.0,56,0.00,,OVC080,0.00,169.00,VWS V14.01,2015-01-30 15:38:00,
2015-01-30 10:43:00,30.8,16.5,30.14,NE,54,16.0,16.0,55,0.00,,OVC080,0.00,139.00,VWS V14.01,2015-01-30 15:43:00,
2015-01-30 10:48:00,30.6,16.8,30.15,NE,40,8.0,19.0,56,0.00,,OVC080,0.00,130.00,VWS V14.01,2015-01-30 15:48:00,
2015-01-30 10:53:00,30.6,16.8,30.15,NE,47,7.0,10.0,56,0.00,,OVC080,0.00,160.00,VWS V14.01,2015-01-30 15:53:00,
2015-01-30 10:58:00,30.6,16.8,30.15,NNE,32,7.0,16.0,56,0.00,,OVC080,0.00,137.00,VWS V14.01,2015-01-30 15:58:00,
2015-01-30 11:03:00,30.6,16.8,30.16,North,11,10.0,10.0,56,0.00,,OVC050,0.00,151.00,VWS V14.01,2015-01-30 16:03:00,
2015-01-30 11:08:00,30.6,16.4,30.16,NNW,330,0.0,10.0,55,0.00,,OVC050,0.00,132.00,VWS V14.01,2015-01-30 16:08:00,
2015-01-30 11:13:00,30.8,17.4,30.16,North,0,2.0,6.0,57,0.00,,OVC050,0.00,134.00,VWS V14.01,2015-01-30 16:13:00,
2015-01-30 11:18:00,30.8,17.4,30.15,NNE,20,7.0,7.0,57,0.00,,OVC050,0.00,123.00,VWS V14.01,2015-01-30 16:18:00,
2015-01-30 11:24:00,30.6,15.9,30.15,NNE,18,9.0,26.0,54,0.00,,OVC050,0.00,130.00,VWS V14.01,2015-01-30 16:24:00,
2015-01-30 11:29:00,30.5,16.7,30.15,North,0,5.0,26.0,56,0.00,,OVC050,0.00,130.00,VWS V14.01,2015-01-30 16:29:00,
2015-01-30 11:34:00,30.5,16.7,30.16,NE,47,4.0,10.0,56,0.00,,OVC050,0.00,123.00,VWS V14.01,2015-01-30 16:34:00,
2015-01-30 11:39:00,30.2,16.0,30.16,NNE,25,11.0,17.0,55,0.00,,OVC050,0.00,141.00,VWS V14.01,2015-01-30 16:39:00,
2015-01-30 11:44:00,29.7,15.9,30.16,NNE,17,5.0,12.0,56,0.00,,OVC050,0.00,135.00,VWS V14.01,2015-01-30 16:44:00,
2015-01-30 11:49:00,29.6,15.0,30.17,NNE,31,12.0,14.0,54,0.00,,OVC050,0.00,157.00,VWS V14.01,2015-01-30 16:49:00,
2015-01-30 11:54:00,29.6,14.1,30.17,North,359,4.0,10.0,52,0.00,,OVC050,0.00,130.00,VWS V14.01,2015-01-30 16:54:00,
2015-01-30 11:59:00,29.6,12.8,30.17,North,4,6.0,10.0,49,0.00,,OVC050,0.00,313.00,VWS V14.01,2015-01-30 16:59:00,
2015-01-30 12:04:00,30.0,13.6,30.17,ENE,68,7.0,11.0,50,0.00,,OVC049,0.00,236.00,VWS V14.01,2015-01-30 17:04:00,
2015-01-30 12:09:00,30.0,13.6,30.17,North,356,16.0,17.0,50,0.00,,OVC049,0.00,317.00,VWS V14.01,2015-01-30 17:09:00,
2015-01-30 12:14:00,29.9,15.7,30.17,NNE,28,3.0,8.0,55,0.00,,OVC049,0.00,535.00,VWS V14.01,2015-01-30 17:14:00,
2015-01-30 12:19:00,29.7,17.5,30.17,NE,52,3.0,9.0,60,0.00,,OVC049,0.00,535.00,VWS V14.01,2015-01-30 17:19:00,
2015-01-30 12:24:00,30.0,15.4,30.17,North,7,8.0,8.0,54,0.00,,OVC049,0.00,656.00,VWS V14.01,2015-01-30 17:24:00,
2015-01-30 12:29:00,30.6,15.5,30.17,NE,47,3.0,14.0,53,0.00,,OVC049,0.00,721.00,VWS V14.01,2015-01-30 17:29:00,
2015-01-30 12:34:00,30.6,13.7,30.17,NNE,13,8.0,18.0,49,0.00,,OVC049,0.00,201.00,VWS V14.01,2015-01-30 17:34:00,
2015-01-30 12:39:00,30.0,13.6,30.17,NNE,23,6.0,18.0,50,0.00,,OVC049,0.00,178.00,VWS V14.01,2015-01-30 17:39:00,
2015-01-30 12:44:00,29.6,14.1,30.17,North,0,10.0,18.0,52,0.00,,OVC049,0.00,144.00,VWS V14.01,2015-01-30 17:44:00,
2015-01-30 12:49:00,29.0,14.9,30.18,NNW,333,19.0,19.0,55,0.00,,OVC049,0.00,174.00,VWS V14.01,2015-01-30 17:49:00,
2015-01-30 12:55:00,28.7,13.8,30.18,North,0,9.0,18.0,53,0.00,,OVC049,0.00,280.00,VWS V14.01,2015-01-30 17:55:00,
2015-01-30 13:00:00,28.8,13.4,30.18,North,4,6.0,21.0,52,0.00,,OVC049,0.00,253.00,VWS V14.01,2015-01-30 18:00:00,
2015-01-30 13:05:00,29.1,13.2,30.19,NNW,333,10.0,20.0,51,0.00,,OVC060,0.00,406.00,VWS V14.01,2015-01-30 18:05:00,
2015-01-30 13:10:00,29.3,11.6,30.19,North,1,9.0,20.0,47,0.00,,OVC060,0.00,355.00,VWS V14.01,2015-01-30 18:10:00,
2015-01-30 13:15:00,29.3,11.6,30.19,NNW,337,12.0,16.0,47,0.00,,OVC060,0.00,259.00,VWS V14.01,2015-01-30 18:15:00,
2015-01-30 13:20:00,29.3,13.0,30.18,North,0,5.0,16.0,50,0.00,,OVC060,0.00,252.00,VWS V14.01,2015-01-30 18:20:00,
2015-01-30 13:25:00,29.1,12.8,30.18,NNE,25,8.0,16.0,50,0.00,,OVC060,0.00,303.00,VWS V14.01,2015-01-30 18:25:00,
2015-01-30 13:30:00,29.1,12.3,30.19,North,356,7.0,16.0,49,0.00,,OVC060,0.00,213.00,VWS V14.01,2015-01-30 18:30:00,
2015-01-30 13:35:00,29.1,12.3,30.19,North,3,12.0,19.0,49,0.00,,OVC060,0.00,167.00,VWS V14.01,2015-01-30 18:35:00,
2015-01-30 13:40:00,28.7,14.2,30.19,North,3,12.0,20.0,54,0.00,,OVC060,0.00,250.00,VWS V14.01,2015-01-30 18:40:00,
2015-01-30 13:45:00,28.7,14.2,30.19,North,0,8.0,13.0,54,0.00,,OVC060,0.00,642.00,VWS V14.01,2015-01-30 18:45:00,
2015-01-30 13:50:00,29.3,14.3,30.19,North,0,10.0,13.0,53,0.00,,OVC060,0.00,672.00,VWS V14.01,2015-01-30 18:50:00,
2015-01-30 13:55:00,29.4,14.4,30.19,North,0,12.0,18.0,53,0.00,,OVC060,0.00,649.00,VWS V14.01,2015-01-30 18:55:00,
2015-01-30 14:00:00,29.0,13.1,30.20,North,0,8.0,18.0,51,0.00,,OVC060,0.00,649.00,VWS V14.01,2015-01-30 19:00:00,
2015-01-30 14:05:00,28.5,11.8,30.20,NE,34,7.0,20.0,49,0.00,,OVC080,0.00,227.00,VWS V14.01,2015-01-30 19:05:00,
2015-01-30 14:10:00,28.0,12.2,30.20,NNE,30,13.0,20.0,51,0.00,,OVC080,0.00,181.00,VWS V14.01,2015-01-30 19:10:00,
2015-01-30 14:15:00,27.5,12.6,30.21,NNE,17,8.0,16.0,53,0.00,,OVC080,0.00,174.00,VWS V14.01,2015-01-30 19:15:00,
2015-01-30 14:20:00,27.5,12.2,30.21,North,357,11.0,16.0,52,0.00,,OVC080,0.00,137.00,VWS V14.01,2015-01-30 19:20:00,
2015-01-30 14:26:00,27.4,11.2,30.21,NNE,21,7.0,21.0,50,0.00,,OVC080,0.00,162.00,VWS V14.01,2015-01-30 19:26:00,
2015-01-30 14:31:00,27.2,11.0,30.22,North,0,10.0,21.0,50,0.00,,OVC080,0.00,187.00,VWS V14.01,2015-01-30 19:31:00,
2015-01-30 14:36:00,27.2,11.5,30.22,NNE,18,7.0,18.0,51,0.00,,OVC080,0.00,183.00,VWS V14.01,2015-01-30 19:36:00,
2015-01-30 14:41:00,27.2,11.0,30.22,North,0,6.0,18.0,50,0.00,,OVC080,0.00,153.00,VWS V14.01,2015-01-30 19:41:00,
2015-01-30 14:46:00,27.2,11.5,30.22,NNE,24,4.0,14.0,51,0.00,,OVC080,0.00,172.00,VWS V14.01,2015-01-30 19:46:00,
2015-01-30 14:51:00,27.1,10.5,30.22,North,11,6.0,6.0,49,0.00,,OVC080,0.00,167.00,VWS V14.01,2015-01-30 19:51:00,
2015-01-30 14:56:00,27.4,12.1,30.22,North,0,5.0,8.0,52,0.00,,OVC080,0.00,185.00,VWS V14.01,2015-01-30 19:56:00,
2015-01-30 15:01:00,27.2,11.9,30.23,NE,45,8.0,9.0,52,0.00,,OVC080,0.00,146.00,VWS V14.01,2015-01-30 20:01:00,
2015-01-30 15:06:00,27.1,10.9,30.23,NNE,30,11.0,13.0,50,0.00,,BKN060,0.00,153.00,VWS V14.01,2015-01-30 20:06:00,
2015-01-30 15:11:00,26.8,10.7,30.23,NNE,21,6.0,6.0,50,0.00,,BKN060,0.00,118.00,VWS V14.01,2015-01-30 20:11:00,
2015-01-30 15:16:00,26.8,11.1,30.23,North,4,11.0,12.0,51,0.00,,BKN060,0.00,123.00,VWS V14.01,2015-01-30 20:16:00,
2015-01-30 15:21:00,26.8,11.1,30.23,NE,41,10.0,17.0,51,0.00,,BKN060,0.00,164.00,VWS V14.01,2015-01-30 20:21:00,
2015-01-30 15:26:00,26.9,10.8,30.23,North,0,8.0,17.0,50,0.00,,BKN060,0.00,223.00,VWS V14.01,2015-01-30 20:26:00,
2015-01-30 15:31:00,27.2,11.0,30.25,North,6,12.0,13.0,50,0.00,,BKN060,0.00,185.00,VWS V14.01,2015-01-30 20:31:00,
2015-01-30 15:36:00,26.6,11.4,30.25,North,0,10.0,18.0,52,0.00,,BKN060,0.00,169.00,VWS V14.01,2015-01-30 20:36:00,
2015-01-30 15:41:00,26.5,10.4,30.25,North,8,13.0,13.0,50,0.00,,BKN060,0.00,143.00,VWS V14.01,2015-01-30 20:41:00,
2015-01-30 15:46:00,26.2,10.1,30.26,NE,34,11.0,13.0,50,0.00,,BKN060,0.00,171.00,VWS V14.01,2015-01-30 20:46:00,
2015-01-30 15:52:00,26.0,9.9,30.26,NNE,14,7.0,7.0,50,0.00,,BKN060,0.00,106.00,VWS V14.01,2015-01-30 20:52:00,
2015-01-30 15:57:00,26.2,11.0,30.26,North,0,4.0,14.0,52,0.00,,BKN060,0.00,176.00,VWS V14.01,2015-01-30 20:57:00,
2015-01-30 16:02:00,26.3,11.1,30.26,North,359,5.0,8.0,52,0.00,,SCT050,0.00,299.00,VWS V14.01,2015-01-30 21:02:00,
2015-01-30 16:07:00,26.5,11.7,30.26,North,359,5.0,8.0,53,0.00,,SCT050,0.00,118.00,VWS V14.01,2015-01-30 21:07:00,
2015-01-30 16:12:00,26.5,12.1,30.26,NNW,342,3.0,10.0,54,0.00,,SCT050,0.00,139.00,VWS V14.01,2015-01-30 21:12:00,
2015-01-30 16:17:00,26.5,11.7,30.27,NE,42,6.0,10.0,53,0.00,,SCT050,0.00,218.00,VWS V14.01,2015-01-30 21:17:00,
2015-01-30 16:22:00,26.3,10.6,30.27,North,0,7.0,8.0,51,0.00,,SCT050,0.00,95.00,VWS V14.01,2015-01-30 21:22:00,
2015-01-30 16:27:00,25.9,10.3,30.27,NNE,23,5.0,13.0,51,0.00,,SCT050,0.00,111.00,VWS V14.01,2015-01-30 21:27:00,
2015-01-30 16:32:00,25.7,10.5,30.27,NNE,17,5.0,5.0,52,0.00,,SCT050,0.00,79.00,VWS V14.01,2015-01-30 21:32:00,
2015-01-30 16:37:00,25.6,10.4,30.27,NNE,23,6.0,10.0,52,0.00,,SCT050,0.00,60.00,VWS V14.01,2015-01-30 21:37:00,
2015-01-30 16:42:00,25.6,11.3,30.27,North,0,7.0,10.0,54,0.00,,SCT050,0.00,97.00,VWS V14.01,2015-01-30 21:42:00,
2015-01-30 16:47:00,25.6,10.9,30.28,North,352,5.0,12.0,53,0.00,,SCT050,0.00,107.00,VWS V14.01,2015-01-30 21:47:00,
2015-01-30 16:52:00,25.6,10.0,30.28,NW,320,10.0,21.0,51,0.00,,SCT050,0.00,83.00,VWS V14.01,2015-01-30 21:52:00,
2015-01-30 16:57:00,25.3,10.6,30.28,NE,51,7.0,21.0,53,0.00,,SCT050,0.00,70.00,VWS V14.01,2015-01-30 21:57:00,
2015-01-30 17:02:00,25.1,11.6,30.29,NE,40,6.0,10.0,56,0.00,,OVC047,0.00,67.00,VWS V14.01,2015-01-30 22:02:00,
2015-01-30 17:07:00,24.8,11.3,30.29,NE,34,3.0,10.0,56,0.00,,OVC047,0.00,42.00,VWS V14.01,2015-01-30 22:07:00,
2015-01-30 17:12:00,24.7,11.2,30.29,NNW,346,3.0,6.0,56,0.00,,OVC047,0.00,28.00,VWS V14.01,2015-01-30 22:12:00,
2015-01-30 17:17:00,24.6,10.8,30.30,NNE,18,4.0,16.0,55,0.00,,OVC047,0.00,30.00,VWS V14.01,2015-01-30 22:17:00,
2015-01-30 17:23:00,24.4,10.1,30.30,NNE,27,8.0,13.0,54,0.00,,OVC047,0.00,25.00,VWS V14.01,2015-01-30 22:23:00,